This demonstration page uses our WeatherBlox Daily Observations layout. Learn more.

Left ArrowRight Arrow

Hourly Observations for November 20, 2015

Temp ( °F °C ) Dew Point ( °F °C ) Humidity (%) Winds ( mph kmh ) Pressure ( in mb ) Visibility ( mi km ) Precip ( " mm )
12:53 am 00:53 Cloudy 21 -6.1 16 -8.9 81 81 N N/A 30.19 1022 10 16 N/A
1:53 am 01:53 Mostly Cloudy 20 -6.7 16 -8.9 85 85 NW 5 7 30.21 1023 10 16 N/A
2:53 am 02:53 Cloudy 20 -6.7 17 -8.3 89 89 W 3 6 30.24 1024 10 16 N/A
3:53 am 03:53 Cloudy 23 -5 18 -7.8 81 81 NW 6 9 30.25 1024 10 16 N/A
4:53 am 04:53 Cloudy 23 -5 19 -7.2 85 85 WNW 5 7 30.29 1026 10 16 N/A
5:53 am 05:53 Cloudy 22 -5.6 19 -7.2 89 89 WSW 5 7 30.32 1027 10 16 N/A
6:53 am 06:53 Cloudy 23 -5 20 -6.7 88 88 W 5 7 30.36 1028 10 16 N/A
7:53 am 07:53 Cloudy 23 -5 19 -7.2 85 85 WNW 7 11 30.40 1029 10 16 N/A
8:53 am 08:53 Cloudy 23 -5 19 -7.2 85 85 NW 10 17 30.43 1030 10 16 N/A
9:53 am 09:53 Cloudy 24 -4.4 19 -7.2 81 81 WNW 13 20 30.45 1031 10 16 N/A
10:23 am 10:23 Mostly Cloudy 25 -3.9 19 -7.2 78 78 WNW 12 19 30.50 1033 10 16 N/A
10:53 am 10:53 Mostly Cloudy 26 -3.3 19 -7.2 75 75 WNW 13 20 30.46 1032 10 16 N/A
11:46 am 11:46 Partly Cloudy 27 -3 18 -8 69 69 WNW 12 19 30.50 1033 10 16 N/A
11:53 am 11:53 Mostly Cloudy 26 -3.3 17 -8.3 69 69 WNW 13 20 30.47 1032 10 16 N/A
12:28 pm 12:28 Cloudy 27 -3 16 -9 64 64 WNW 15 24 30.50 1033 10 16 N/A
12:53 pm 12:53 Mostly Cloudy 27 -2.8 15 -9.4 61 61 WNW 10 17 30.48 1032 10 16 N/A
1:53 pm 13:53 Mostly Sunny 29 -1.7 13 -10.6 51 51 W 14 22 30.47 1032 10 16 N/A
2:53 pm 14:53 Mostly Cloudy 29 -1.7 13 -10.6 51 51 WNW 13 20 30.48 1032 10 16 N/A
3:53 pm 15:53 Mostly Cloudy 26 -3.3 13 -10.6 57 57 WNW 10 17 30.49 1033 10 16 N/A
4:53 pm 16:53 Cloudy 24 -4.4 14 -10 65 65 W 8 13 30.50 1033 10 16 N/A
5:53 pm 17:53 Mostly Clear 16 -8.9 10 -12.2 77 77 WSW 9 15 30.51 1033 10 16 N/A
6:53 pm 18:53 Clear 15 -9.4 12 -11.1 88 88 SW 8 13 30.51 1033 10 16 N/A
7:53 pm 19:53 Clear 17 -8.3 14 -10 88 88 WSW 12 19 30.49 1033 10 16 N/A
8:53 pm 20:53 Clear 15 -9.4 12 -11.1 88 88 W 6 9 30.48 1032 10 16 N/A
9:53 pm 21:53 Clear 21 -6.1 16 -8.9 81 81 SW 20 31 30.42 1030 10 16 N/A
10:53 pm 22:53 Clear 21 -6.1 14 -10 74 74 SW 20 31 30.40 1029 10 16 N/A
11:53 pm 23:53 Clear 22 -5.6 13 -10.6 68 68 SW 24 39 30.37 1029 10 16 N/A

Powered by AerisWeather